星链-3826 (STARLINK-3826 )

导读

STARLINK-3826是美国太空探索技术公司Starlink卫星互联网项目的组成部分,于2022年4月29日发射,属于星链组网批量发射的卫星,部署在近地轨道,旨在为全球提供高速低延迟互联网服务,星链系统持续通过这类卫星补网,推进全球卫星互联网星座布局完善。

基本信息
目录编号:
52347
目录名称:
STARLINK-3826
国际标识:
2022-045S
轨道中心:
EARTH
卫星名称:
星链-3826
卫星全名:
星链-3826 (STARLINK-3826 )
卫星状态:
在轨 (已飞行1510 天)
发射日期:
2022-04-29 UTC
国别 :
美国 (US)
星等 :
--
轨道信息
数据来源 国际轨道数据 AOE轨道数据
星历时间 2026-06-17T09:54:23+0800
13小时前
查看轨道信息
2026-06-14T03:00:00+0800
3天前
查看轨道信息
半长轴 6917.908km 6917.905km
偏心率 0.0001452 0.0001341
轨道倾角 53.162° 53.160°
近地点辐角 88.625° 104.039°
升交点赤经 112.859° 127.636°
平近点角 271.491° 27.811°
近地点 538.766km 538.84km
远地点 540.776km 540.696km
周期 95.438分钟 95.438分钟
每日圈数 15.088312 15.088321
详细信息
固有亮度:
5
最大亮度:
2.5
卫星平台:
Starlink v1.5
覆盖范围:
全球
运营商:
太空探索技术公司
运营商所在国:
美国
制造商(研发单位):
太空探索技术公司
制造商所在国:
美国
使用方式:
暂无
卫星简介
星链(Starlink)计划是由太空探索技术公司(SpaceX)提出的一个巨型低轨卫星互联网星座项目,计划在2019年至2024年间在太空搭建由约1.2万颗卫星组成的“星链”网络,其中1584颗将部署在地球上空550千米处的近地轨道,并从2020年开始工作。该卫星仍在工作。
2D轨道图
3D轨道图
轨道高度分析图
轨道倾角分析图
轨道综合分析图
查看轨道综合分析图